Reflectivity
4 19 5 -8 1 -5 1 4 11 18 15 9 19 21 16 19 29 21 16 22 -2 -4 22 22 19 16 9
-19 -7 -5 20 5 -2 24 26 34 33 18 15 13 16 23 27 24 29 23 18 -20 5 -1 19 4 15 24
-17 -1 12 16 28 21 -2 23 16 31 36 24 24 28 23 20 29 27 23 12 -20 -12 18 23 17 10 20
2 4 6 -20 -12 5 13 24 22 12 25 26 26 32 27 35 22 23 25 24 7 11 17 26 20 20 23
10 1 -20 -2 -1 -17 -20 22 32 33 34 26 33 29 19 21 13 11 -12 -13 23 25 23 23 24 27 24
-20 -20 -20 -20 -12 -11 -20 -20 7 16 29 11 14 4 0 -16 24 25 16 -11 -3 15 25 28 29 33 29
-20 -20 -20 -20 -20 -20 -19 1 -2 1 -9 -7 -2 -12 4 -16 -13 -13 -20 -20 6 21 31 31 32 33 28
-20 -20 -20 -20 -20 -20 -17 -20 -7 -19 2 13 -1 -13 -20 -14 2 4 -3 10 18 20 29 28 30 31 28
-20 -20 -20 -20 -20 -20 -20 -8 -17 -18 -0 6 -11 -20 -20 -20 -20 -19 16 16 22 27 26 25 16 18 18
-20 -20 -20 -20 -20 -20 -4 8 -5 -20 -20 0 -4 11 1 -20 -20 -20 -16 17 15 22 21 19 17 9 -6
-20 -20 -20 -20 -20 -20 -20 -20 -13 -6 -10 -19 4 -3 -1 14 -14 -17 -6 12 14 18 25 23 16 9 -7
-20 -20 -20 -20 -20 -20 -20 -20 -20 -20 -20 -20 -8 -20 -13 -2 -3 -19 -13 5 19 23 21 26 19 19 18
-20 -20 -20 -20 -20 -20 -20 -20 -20 -20 -18 -8 -14 -20 -8 -20 -6 5 10 4 11 26 19 21 19 15 19
-20 -20 -20 -20 -20 -20 -20 -20 -8 -20 -20 -20 -14 -2 -18 -18 5 3 2 2 -2 3 14 18 21 17 12
-20 -20 -20 -20 -20 -20 -20 -20 -7 -2 -4 -20 -16 -8 2 -13 5 7 3 -5 1 9 17 27 20 18 12
-20 -20 -20 -20 -20 -20 -2 -20 -20 -20 -10 -12 -11 -8 10 0 0 -9 6 20 -2 5 12 29 25 18 25
-19 -20 -20 -20 -19 -20 -20 -20 -3 -0 -16 -8 8 -9 7 1 -20 -20 3 15 7 -0 12 17 18 9 23
Wind_Speed
6 9 9 12 12 10 8 9 9 16 20 21 19 17 14 12 14 13 15 16 16 18 19 25 26 24 22
6 6 10 9 9 12 9 7 7 9 16 16 15 14 11 14 12 12 14 15 14 19 23 27 25 24 23
7 7 7 8 10 6 7 7 5 11 8 13 13 12 11 11 14 12 14 15 16 19 24 26 26 25 24
6 6 6 8 6 8 9 6 8 6 7 8 7 10 13 16 16 17 19 19 20 23 27 26 25 24 23
5 4 6 7 9 7 8 9 10 4 5 4 4 5 7 13 17 18 21 22 23 27 28 28 25 23 23
3 5 6 7 7 8 7 8 6 2 8 9 3 6 7 7 12 15 18 23 25 28 26 25 23 22 19
5 5 8 8 7 8 9 8 9 9 10 11 5 9 6 7 13 16 19 18 21 23 24 22 21 20 19
5 6 5 8 7 7 10 11 9 8 8 10 5 7 5 6 10 10 11 16 19 20 22 22 22 21 20
13 14 16 17 14 7 7 8 9 8 4 7 4 4 3 4 4 12 14 17 20 22 23 23 22 20 15
5 9 9 8 14 5 6 7 7 6 3 5 3 4 4 2 3 5 8 18 21 22 24 23 23 10 7
5 4 6 5 5 4 5 4 8 8 7 8 4 7 3 4 3 3 4 6 8 11 22 24 25 18 9
3 5 6 6 6 5 6 7 7 11 10 12 8 7 8 9 6 3 5 6 8 9 9 17 25 22 18
4 5 5 6 6 4 7 9 9 9 9 11 11 12 10 10 10 4 3 4 7 8 10 11 11 10 9
4 4 4 3 4 3 6 8 9 10 7 10 11 12 12 12 10 10 7 6 6 8 9 10 10 10 10
3 5 6 7 6 4 6 7 10 9 10 7 8 12 12 14 12 11 11 9 6 8 8 8 8 11 11
3 3 6 7 7 7 6 7 10 10 10 10 9 8 8 10 19 11 10 11 7 9 9 10 9 8 9
3 4 5 6 10 7 7 8 10 10 9 11 9 9 11 12 5 21 11 8 7 8 10 10 9 10 11
Wind_Direction
326 317 320 338 333 310 264 240 233 224 228 228 228 228 231 231 245 224 217 223 215 210 195 193 192 196 196
314 337 320 309 328 322 325 281 258 227 225 232 228 231 233 230 226 229 235 222 212 210 199 193 194 191 194
318 328 319 328 323 319 330 319 341 327 288 254 238 244 243 242 242 236 233 228 224 210 201 195 188 187 192
311 313 319 340 315 334 340 350 324 324 291 277 294 265 248 243 242 236 231 230 230 213 195 187 184 183 187
316 315 332 347 348 333 332 333 333 290 319 297 294 275 261 257 254 244 238 234 220 204 190 182 177 179 179
323 338 330 331 336 329 325 330 324 22 343 319 293 279 272 259 257 248 240 229 219 202 182 173 168 172 173
305 311 310 314 312 315 311 307 297 303 313 298 300 280 271 263 260 251 241 216 194 178 165 159 165 169 169
274 276 267 290 294 298 298 292 284 284 283 282 277 272 271 257 265 231 203 179 170 162 163 167 168 175 173
303 303 306 309 308 311 306 303 303 301 276 286 289 293 277 276 247 229 201 188 178 174 172 173 173 172 181
296 307 310 291 305 283 284 297 300 299 282 344 314 313 283 220 274 226 212 205 189 182 179 177 170 166 172
285 298 297 292 284 277 266 276 298 283 291 310 307 309 248 313 314 279 234 201 196 193 187 181 178 173 169
283 285 284 284 274 270 271 275 263 263 280 276 273 270 283 296 283 304 240 211 194 188 187 191 189 185 180
244 250 251 256 268 269 283 271 265 251 261 264 261 269 261 260 269 246 228 234 202 189 187 182 183 179 174
246 255 267 268 260 246 281 292 288 283 248 251 249 251 261 254 251 256 234 209 196 194 188 190 185 183 183
264 278 287 293 281 272 275 283 281 277 291 278 257 251 247 248 251 247 241 228 202 196 178 188 194 185 182
241 242 282 285 284 284 265 282 282 284 281 283 275 266 249 240 231 249 244 227 198 191 193 193 189 186 181
233 237 268 270 289 281 278 276 280 279 276 282 265 254 255 258 250 211 227 213 187 193 190 195 188 188 177